Regional Weather Roundup
Issued by NWS Cleveland, OH

Home | Current Version | Previous Version | Text Only | Print | Product List | Glossary Off
Versions: 1 2 3 4 5 6 7 8 9 10 11 12 13 14 15 16 17 18 19 20 21 22 23 24 25 26 27 28 29 30 31 32 33 34 35 36 37 38 39 40 41 42 43 44 45 46 47 48 49 50

000
ASUS41 KCLE 191202
RWRCLE
OHIO REGIONAL WEATHER ROUNDUP
NATIONAL WEATHER SERVICE CLEVELAND, OH
700 AM EST FRI JAN 19 2018

NOTE: "FAIR" INDICATES FEW OR NO CLOUDS BELOW 12,000 FEET WITH NO
SIGNIFICANT WEATHER AND/OR OBSTRUCTIONS TO VISIBILITY.

OHZ001>008-015>018-024>027-034-035-043-044-191300-
   NORTHWEST OHIO

CITY           SKY/WX    TMP DP  RH WIND       PRES   REMARKS
DEFIANCE       FAIR      21  12  68 SW13      30.02F WCI   9
FINDLAY        FAIR      25  13  60 SW16      30.03F WCI  12
TOLEDO EXPRESS FAIR      24  15  68 SW15      29.99F WCI  11
TOLEDO EXEC    FAIR      22  13  68 SW15      30.01S WCI   9
LIMA           FAIR      23  13  65 SW12      30.05S WCI  12
$$

OHZ009>014-019>023-028>033-038-089-191300-
   NORTHEAST OHIO

CITY           SKY/WX    TMP DP  RH WIND       PRES   REMARKS
CLE-HOPKINS    FAIR      24  12  60 S9        30.07S WCI  14
CLE-LAKEFRONT  FAIR      25  12  58 S13       30.03F WCI  14
CUY CO. ARPT   CLEAR     25  12  58 SW12G17   30.04  WCI  14
LORAIN-ELYRIA  FAIR      22   9  57 SW14      30.04F WCI   9
ASHTABULA      FAIR      21  11  65 S12       30.02F WCI   9
AKRON-CANTON   FAIR      18   9  68 SW13      30.07R WCI   5
WOOSTER        FAIR      19  11  70 SW12      30.07R WCI   7
MANSFIELD      FAIR      22  12  65 SW15      30.05R WCI   9
YOUNGSTOWN     FAIR      20  10  65 S9        30.05R WCI   9
$$

OHZ042-051>053-060>062-070>072-077>081-191300-
  SOUTHWEST OHIO

CITY           SKY/WX    TMP DP  RH WIND       PRES   REMARKS
CINC-COVINGTON FAIR      21  12  68 S14       30.15F WCI   8
CINC-LUNKEN    FAIR      21  12  68 S9        30.21F WCI  11
HAMILTON       FAIR      22  13  68 SW6       30.18F WCI  14
DAYTON         FAIR      20  12  71 S15       30.11F WCI   6
WRIGHT-PAT AFB CLEAR     20   7  56 S13       30.13S WCI   7
DAYTON GENERAL FAIR      20  11  68 S8        30.13S WCI  10
WILMINGTON     FAIR      18  11  74 SW13      30.14S WCI   5
$$

OHZ036-037-039>041-045>050-054>059-063>069-073>076-082>088-191300-
  CENTRAL AND SOUTHEAST OHIO

CITY           SKY/WX    TMP DP  RH WIND       PRES   REMARKS
COLUMBUS       FAIR      18  10  71 S6        30.15R WCI  10
OSU AIRPORT    FAIR      18  11  74 S9        30.13S WCI   7
BOLTON FIELD   FAIR      18  10  72 SW10      30.15R WCI   6
RICKENBACK AFB NOT AVBL
NEWARK         FAIR      20   9  62 S8        30.14R WCI  10
MARION         FAIR      17  10  74 S10       30.09R WCI   5
LANCASTER      FAIR      22  10  60 SW10      30.16R WCI  11
ZANESVILLE     FAIR      16   7  67 S7        30.15S WCI   6
NEW PHILLY     NOT AVBL
$$



USA.gov is the U.S. government's official web portal to all federal, state and local government web resources and services.